Queretaro Airport, México

9:42 PM CST en Diciembre 15, 2018 (GMT -0600)
Queretaro Airport

Tiempo Historia de MMQT - Mayo, 2018

Change the Weather History Date:

Jueves, Mayo 17, 2018

  Actual Average Record
Temperature  
Temperatura media 72 ° F -  
Temperatura máxima 86 ° F 80 ° F 91 ° F (2003)
Temperatura mínima 59 ° F 56 ° F 46 ° F (2014)
Cooling Degree Days 8    
Growing Degree Days 22 (Base 50)    
Moisture  
Punto de rocío 49 ° F    
Average Humidity 40    
Maximum Humidity 82    
Minimum Humidity 21    
Precipitación  
Precipitación 0.00 pul - - ()
Presión al nivel del mar  
Presión al nivel del mar 30.05 pul    
Viento  
Velocidad del viento 5 mph ()    
Velocidad máxima del viento 21 mph    
Max Gust Speed -    
Visibilidad 7.5 Millas    
Eventos      
Averages and records for this station are not official NWS values.
T = Trace of Precipitation, MM = Missing Value Source: Averaged Metar Reports

Daily Weather History Graph

Daily Weather History Graph

Search for Another Location

Airport or City:

Astronomía

May. 17, 2018 Salida Puesta
Hora real 7:02 AM CDT 8:11 PM CDT
Crepúsculo civil 6:39 AM CDT 8:35 PM CDT
Crepúsculo náutico 6:10 AM CDT 9:03 PM CDT
Crepúsculo astronómico 5:41 AM CDT 9:32 PM CDT
Luna 9:09 AM CDT (5/17) 10:44 PM CDT (5/17)
Horas de luz 13h 56m
Horas de luz
13h 08m
Creciente, 7% of the Moon is Illuminated
May 17
Creciente
May 21
Cuarto creciente
May 29
Luna llena
Jun 6
Cuarto menguante
Jun 13
Nueva

Hourly Weather History & Observations

Hora (CDT) Temp. Punto de rocío Humedad Presión Visibilidad Wind Dir Velocidad del viento Velocidad de ráfagas Precip Eventos Condiciones
12:40 AM 68 ° F 58 ° F 62% 29.58 pul 3 mi Este 6.7 mph - -   Muy nublado
3:40 AM 64 ° F 57 ° F 70% 29.66 pul 3 mi Este 2.2 mph - -   Muy nublado
6:50 AM 60.8 ° F 53.6 ° F 77% 30.25 pul 7.0 mi ENE 5.8 mph - N/A   Muy nublado
7:53 AM 59.0 ° F 53.6 ° F 82% 30.27 pul 6.0 mi ONO 2.3 mph - N/A   Despejado
9:08 AM 68.0 ° F 53.6 ° F 60% 30.30 pul 6.0 mi Este 4.6 mph - N/A   Parcialmente nublado
9:40 AM 69.8 ° F 48.2 ° F 46% 30.30 pul 6.0 mi ENE 4.6 mph - N/A   Parcialmente nublado
9:45 AM 70 ° F 56 ° F 50% 29.82 pul 12 mi ENE 4.5 mph - -  
10:40 AM 73.4 ° F 48.2 ° F 41% 30.30 pul 6.0 mi NE 2.3 mph - N/A   Nubes dispersas
11:41 AM 75.2 ° F 46.4 ° F 36% 30.29 pul 7.0 mi Sin viento Sin viento - N/A   Muy nublado
12:45 PM 83 ° F 55 ° F 28% 29.75 pul 12 mi ESE 2.2 mph - -  
12:55 PM 80.6 ° F 46.4 ° F 30% 30.25 pul 7.0 mi ENE 5.8 mph - N/A   Despejado
1:51 PM 80.6 ° F 46.4 ° F 30% 30.23 pul 8.0 mi Oeste 5.8 mph - N/A   Parcialmente nublado
2:48 PM 82.4 ° F 46.4 ° F 28% 30.20 pul 8.0 mi NNO 5.8 mph - N/A   Muy nublado
3:50 PM 88 ° F 54 ° F 21% 29.59 pul 12 mi NNO 4.5 mph - -   Parcialmente nublado
3:51 PM 86.0 ° F 46.4 ° F 25% 30.16 pul 7.0 mi ESE 4.6 mph - N/A   Nubes dispersas
4:50 PM 84.2 ° F 44.6 ° F 25% 30.15 pul 7.0 mi SSE 4.6 mph - N/A   Muy nublado
5:54 PM 82.4 ° F 44.6 ° F 26% 30.14 pul 7.0 mi Este 11.5 mph - N/A   Muy nublado
6:47 PM 80.6 ° F 48.2 ° F 32% 30.15 pul 7.0 mi ENE 20.7 mph - N/A   Muy nublado
6:48 PM 84 ° F 56 ° F 28% 29.52 pul 12 mi NE 8.9 mph - -   Parcialmente nublado
7:57 PM 78.8 ° F 46.4 ° F 32% 30.18 pul 7.0 mi NE 18.4 mph - N/A   Muy nublado
8:51 PM 73.4 ° F 42.8 ° F 33% 30.19 pul 7.0 mi Este 12.7 mph - N/A   Muy nublado
9:47 PM 73.4 ° F 41.0 ° F 31% 30.22 pul 5.0 mi Este 11.5 mph - N/A   Muy nublado
9:50 PM 76 ° F 51 ° F 31% 29.55 pul 12 mi NE 11.2 mph - -   Nubes dispersas
10:44 PM 71.6 ° F 42.8 ° F 35% 30.24 pul 6.0 mi ENE 5.8 mph - N/A   Muy nublado